Wind_Speed
11 12 9 8 7 3 6 5 11 33 27 25 25 24 23 25 23 23 20 22 18 20 18 15 14 13 15 15 11 9 6 3 5 4 5 4 5 4 4 5 4 2 5
8 5 7 9 12 7 6 6 3 16 29 30 23 22 18 19 20 22 23 23 24 22 22 21 18 17 16 18 17 15 13 9 7 6 8 6 6 6 6 6 4 7 6
8 2 7 9 10 11 7 5 7 12 9 20 33 34 25 18 17 15 23 28 26 25 26 23 23 19 18 18 19 19 19 16 11 9 8 8 8 9 9 9 8 8 9
8 2 8 14 12 12 10 11 10 6 19 16 23 29 28 19 22 20 14 22 29 27 27 27 26 24 19 19 23 21 22 16 14 14 12 10 10 11 11 12 13 12 12
12 10 9 14 17 16 19 22 16 14 17 23 26 30 35 26 24 26 21 18 30 32 29 29 28 29 24 21 20 22 22 18 19 18 17 15 16 15 14 16 16 15 12
10 14 16 19 22 27 22 22 27 24 18 25 28 32 37 36 33 30 24 24 20 32 36 33 31 31 28 25 21 24 26 23 22 23 21 21 19 20 17 18 19 18 17
18 21 25 25 30 28 31 34 30 27 25 22 26 31 31 36 36 36 33 34 38 34 29 37 37 30 31 28 27 26 26 30 27 26 27 27 25 25 23 19 19 21 21
22 25 28 29 32 33 36 35 31 31 29 26 28 31 34 38 39 41 39 27 28 32 33 29 41 41 40 35 29 27 26 30 30 31 30 27 31 28 28 24 22 22 22
30 34 37 37 35 35 32 31 29 26 25 27 30 31 35 37 33 34 34 35 33 32 35 33 33 42 38 33 30 30 29 30 32 34 32 31 32 36 32 32 30 32 31
34 39 38 37 39 32 28 27 29 26 24 26 28 32 36 35 40 44 46 46 40 34 37 36 29 39 43 38 35 34 35 33 32 30 32 33 32 35 35 36 35 34 38
33 38 40 40 39 37 30 28 26 26 23 25 26 29 31 32 34 37 33 33 31 30 33 34 34 33 40 38 31 30 36 31 28 37 34 38 38 42 37 38 38 38 38
41 42 43 45 44 27 25 26 23 23 22 22 23 23 25 29 28 32 34 36 34 32 33 30 31 33 35 37 39 36 37 36 34 36 42 43 41 39 40 37 38 43 43
38 40 46 43 24 19 19 20 20 21 21 22 22 23 25 26 25 26 24 19 29 30 27 34 35 31 39 40 41 40 37 40 34 39 46 44 44 44 42 47 46 48 50
37 42 39 28 19 17 18 18 20 19 20 21 17 17 17 19 24 21 23 29 30 32 32 29 30 35 36 46 41 42 45 43 40 43 44 46 41 39 36 41 47 50 51
34 34 28 21 19 18 19 19 18 15 13 14 18 13 13 12 17 21 24 26 26 27 27 26 27 28 33 44 45 47 48 44 42 38 39 45 44 48 54 48 46 49 51
23 23 20 19 19 18 18 21 21 16 15 14 20 10 8 9 6 22 29 30 29 34 26 27 28 28 28 35 47 51 47 44 45 49 41 45 48 52 55 60 60 54 68
15 19 19 20 20 17 17 16 16 14 12 14 16 9 7 2 2 1 7 15 26 26 27 29 26 28 30 32 36 48 59 58 58 60 65 65 64 62 65 70 70 74 79
12 13 14 16 16 14 12 12 14 15 17 17 15 9 8 8 10 12 14 17 20 23 26 28 30 32 32 34 37 39 45 55 65 69 72 75 78 79 78 75 77 83 85
12 16 12 11 13 14 10 10 12 14 18 20 16 10 8 11 11 12 16 20 22 23 27 29 30 31 35 38 40 42 46 48 51 55 63 69 73 77 79 81 83 85 86
15 15 10 8 9 9 8 10 11 10 8 8 9 11 11 11 13 15 17 21 23 23 23 24 25 29 29 31 34 39 46 51 54 56 58 59 59 59 61 64 68 72 75
18 12 12 11 10 7 5 7 8 9 10 10 11 12 12 13 14 16 18 19 22 23 24 26 29 28 29 30 32 36 40 43 46 50 54 58 60 62 64 66 69 71 72
21 17 16 16 15 13 13 14 14 14 14 16 18 20 19 20 20 20 21 23 25 26 28 29 32 36 38 39 41 42 43 45 48 51 53 57 61 64 67 69 75 78 80
24 23 20 21 20 21 21 20 18 20 21 23 26 28 30 31 28 28 29 31 32 34 37 42 47 50 50 54 54 53 56 55 57 59 61 66 69 72 75 78 81 83 85
27 26 23 22 24 26 26 26 25 25 28 31 32 31 32 33 36 37 38 40 42 45 50 50 53 53 53 56 59 60 61 64 66 67 70 74 76 79 81 83 86 89 92
32 31 30 30 31 35 36 36 34 35 35 36 38 41 43 44 43 43 45 46 49 51 54 57 59 59 61 67 69 69 71 72 74 75 78 80 82 83 86 89 94 97 98
37 36 37 38 41 42 43 41 40 40 45 47 49 49 50 51 52 52 53 56 57 59 62 64 66 69 73 76 74 75 75 77 80 81 83 83 85 89 94 97 98 98 95
Wind_Direction
56 61 35 29 324 346 346 347 229 213 221 218 224 227 237 238 246 235 237 233 235 234 248 247 255 253 257 258 248 238 229 339 351 334 322 295 273 270 299 299 279 276 337
45 48 31 26 27 18 315 317 278 222 231 238 232 240 235 245 248 245 248 242 243 243 249 255 255 251 256 256 255 249 240 275 275 291 289 272 279 295 270 289 274 254 299
350 59 10 9 1 358 25 5 329 270 260 249 248 248 246 243 245 239 254 239 241 250 250 255 246 243 247 261 263 245 251 266 252 269 275 275 261 277 278 285 266 274 273
315 309 332 352 347 324 320 301 311 274 264 253 244 240 234 250 244 258 249 253 255 244 245 245 248 243 243 252 260 252 255 267 247 253 268 286 273 272 276 273 263 268 272
306 274 292 324 319 306 306 300 296 300 235 249 242 234 237 241 251 267 264 268 251 246 243 242 248 245 244 249 255 250 253 252 256 260 278 272 279 280 283 279 275 266 266
293 269 293 295 296 297 296 296 296 291 276 238 239 241 236 237 244 253 256 256 244 248 250 246 244 252 249 242 250 256 259 250 254 260 270 275 268 278 279 281 278 271 271
279 291 299 299 300 299 298 296 286 284 272 258 250 246 250 253 249 255 266 262 257 258 255 248 244 245 245 248 257 257 257 259 261 267 264 266 274 270 275 272 277 273 278
283 296 303 304 302 298 296 290 285 282 269 264 258 261 255 249 248 252 261 255 257 253 251 249 242 241 241 245 245 250 256 255 260 260 266 269 269 270 268 268 274 279 281
288 290 294 298 300 298 294 285 285 279 273 265 263 259 259 260 246 248 240 269 269 258 250 249 248 241 239 235 237 245 243 249 250 256 255 267 275 271 269 269 280 275 275
294 293 294 293 303 302 293 289 286 276 279 274 264 259 254 256 256 247 251 259 261 256 247 246 241 235 239 237 238 245 244 247 248 258 260 263 271 273 271 269 277 270 272
291 292 293 298 299 297 275 285 286 285 280 279 276 267 264 260 254 252 251 248 244 244 245 242 236 232 233 233 237 235 240 245 254 263 265 263 265 265 259 264 270 270 276
292 295 300 302 304 285 270 277 276 281 283 285 286 280 264 255 254 250 246 251 245 241 240 241 236 240 225 228 236 237 239 241 239 244 260 266 267 262 258 258 262 268 273
287 295 300 305 300 288 277 273 279 279 287 291 299 295 274 253 250 249 249 259 255 242 245 241 244 247 237 226 242 238 238 240 248 250 250 261 269 258 257 251 253 262 263
291 301 304 310 304 293 279 265 275 288 287 291 295 304 294 267 253 252 244 228 252 247 249 249 252 249 242 231 243 247 244 242 248 254 252 257 262 259 256 254 253 257 260
297 302 304 301 294 292 283 267 274 296 302 307 302 289 280 288 260 257 250 242 242 244 249 254 253 261 251 242 238 240 247 245 252 242 248 255 256 254 257 255 248 253 258
296 304 301 290 286 291 288 274 279 295 284 307 325 276 290 300 283 226 233 246 238 248 252 258 265 262 261 254 248 240 244 240 245 244 252 251 250 255 269 268 254 260 272
322 315 300 289 289 292 288 287 288 279 278 318 336 318 335 347 25 272 239 248 251 261 258 260 266 269 267 264 258 247 243 248 250 245 254 256 259 257 262 269 271 268 273
308 317 309 296 290 290 287 292 287 271 278 302 312 307 276 269 247 237 245 243 251 257 264 268 271 273 273 270 265 259 253 251 255 258 261 260 262 263 266 269 265 269 274
301 307 284 300 301 293 285 285 286 286 291 293 289 296 292 270 265 273 263 267 271 274 274 274 273 272 270 267 265 265 264 263 261 260 260 263 266 269 271 272 274 276 279
291 282 278 304 305 296 299 294 292 295 296 309 311 294 290 282 272 272 274 267 271 277 276 278 274 284 278 276 273 270 267 266 268 271 273 275 277 277 277 278 277 277 279
279 271 271 286 292 293 306 294 293 292 288 294 296 294 287 284 281 279 277 272 269 269 272 274 277 274 274 274 274 273 272 272 273 273 275 276 278 278 278 279 280 282 282
275 263 267 268 272 274 273 275 285 281 279 283 287 290 289 292 284 278 278 277 276 276 276 276 278 280 280 279 277 273 271 272 272 273 273 275 275 276 276 276 276 276 276
256 258 263 263 264 267 274 282 278 274 275 280 284 284 282 282 280 277 278 279 278 275 278 283 288 284 283 280 280 280 274 273 274 276 279 279 280 281 280 279 280 279 280
251 254 254 262 277 274 275 281 276 276 273 273 276 277 279 281 282 281 281 281 280 280 283 283 293 290 286 286 283 281 280 280 279 280 281 281 283 283 283 282 282 283 284
249 253 257 264 271 279 284 282 281 282 284 283 283 281 277 275 275 277 279 281 283 287 287 288 291 292 292 291 291 288 285 284 284 285 285 287 287 287 287 287 288 288 287
256 259 261 268 275 281 285 282 283 282 283 283 283 286 285 279 277 277 281 285 288 288 289 289 290 292 293 294 291 289 287 285 287 289 289 289 290 290 290 290 290 289 288
Height
10947 10945 10945 10944 10943 10943 10942 10943 10943 10946 10950 10952 10955 10958 10962 10964 10966 10968 10969 10969 10972 10973 10974 10975 10977 10977 10978 10979 10979 10979 10979 10978 10978 10978 10978 10978 10977 10977 10977 10977 10977 10976 10975
10948 10949 10949 10949 10946 10945 10944 10943 10944 10945 10948 10950 10953 10955 10957 10959 10962 10964 10964 10966 10967 10970 10971 10972 10974 10974 10975 10976 10976 10976 10976 10976 10976 10977 10977 10977 10977 10977 10976 10976 10976 10975 10974
10949 10949 10948 10948 10947 10947 10945 10944 10943 10942 10945 10948 10950 10953 10955 10957 10957 10958 10960 10960 10962 10965 10967 10969 10970 10971 10971 10972 10972 10973 10974 10974 10973 10975 10975 10974 10974 10974 10974 10974 10974 10973 10972
10949 10948 10948 10946 10945 10945 10946 10944 10943 10943 10944 10945 10945 10947 10950 10951 10953 10955 10955 10956 10957 10958 10961 10963 10966 10966 10967 10967 10969 10970 10970 10972 10971 10972 10973 10972 10972 10972 10971 10971 10971 10970 10970
10946 10945 10944 10943 10943 10943 10942 10940 10941 10941 10940 10940 10941 10942 10944 10946 10949 10949 10949 10951 10952 10955 10955 10958 10960 10961 10962 10962 10964 10965 10966 10968 10968 10969 10969 10969 10969 10969 10968 10968 10968 10967 10967
10942 10942 10941 10940 10940 10938 10938 10937 10935 10935 10936 10936 10935 10936 10937 10939 10941 10941 10943 10944 10946 10949 10951 10952 10953 10955 10958 10959 10960 10961 10961 10963 10963 10965 10965 10965 10965 10966 10966 10966 10966 10965 10963
10940 10938 10937 10935 10933 10931 10930 10929 10928 10927 10928 10929 10928 10929 10931 10931 10933 10934 10937 10937 10939 10941 10942 10944 10947 10949 10951 10954 10954 10956 10956 10956 10958 10960 10960 10961 10961 10961 10962 10962 10962 10962 10961
10935 10933 10933 10932 10930 10927 10923 10921 10919 10918 10919 10919 10919 10920 10922 10921 10923 10927 10928 10929 10930 10931 10934 10936 10939 10941 10944 10947 10948 10951 10951 10952 10953 10954 10954 10955 10956 10956 10956 10957 10957 10957 10956
10932 10931 10929 10926 10925 10921 10916 10913 10911 10910 10910 10910 10910 10911 10912 10912 10915 10920 10921 10921 10920 10922 10926 10928 10929 10934 10937 10940 10942 10943 10945 10945 10946 10946 10948 10949 10950 10950 10950 10950 10951 10950 10949
10927 10924 10921 10920 10917 10913 10909 10905 10904 10904 10903 10903 10903 10903 10903 10904 10906 10911 10913 10915 10914 10915 10918 10920 10922 10924 10930 10934 10935 10935 10936 10936 10937 10938 10940 10941 10942 10943 10943 10943 10943 10943 10940
10921 10920 10916 10913 10909 10904 10902 10899 10897 10897 10896 10896 10896 10896 10896 10896 10897 10900 10902 10903 10904 10907 10909 10911 10912 10917 10922 10924 10926 10925 10925 10928 10931 10931 10931 10934 10934 10934 10934 10935 10935 10934 10933
10915 10911 10908 10903 10898 10895 10893 10894 10893 10892 10890 10889 10888 10887 10887 10887 10889 10890 10892 10895 10896 10899 10899 10902 10905 10909 10911 10913 10915 10916 10918 10921 10921 10922 10923 10923 10925 10925 10925 10925 10925 10924 10923
10911 10906 10901 10896 10892 10889 10888 10889 10888 10887 10885 10884 10882 10879 10878 10878 10880 10882 10885 10887 10889 10891 10893 10897 10899 10901 10903 10904 10906 10907 10910 10912 10913 10914 10914 10915 10913 10913 10913 10914 10915 10915 10915
10905 10900 10893 10889 10887 10886 10885 10886 10885 10884 10882 10880 10878 10876 10873 10871 10874 10876 10879 10882 10883 10885 10886 10890 10890 10894 10895 10896 10899 10900 10901 10902 10903 10904 10905 10906 10906 10906 10904 10904 10905 10906 10905
10899 10894 10890 10887 10886 10884 10883 10882 10882 10881 10880 10877 10874 10872 10871 10869 10869 10870 10872 10875 10878 10880 10881 10883 10885 10886 10888 10888 10889 10891 10891 10892 10894 10894 10896 10896 10896 10895 10895 10894 10893 10893 10892
10895 10891 10887 10885 10884 10881 10880 10879 10879 10879 10877 10874 10871 10867 10867 10865 10863 10865 10867 10870 10873 10873 10877 10878 10879 10879 10880 10880 10880 10882 10883 10883 10884 10885 10885 10886 10886 10885 10885 10884 10882 10880 10878
10890 10887 10885 10883 10882 10879 10877 10876 10875 10875 10874 10870 10867 10865 10864 10863 10862 10863 10864 10866 10867 10870 10871 10871 10871 10871 10872 10872 10872 10872 10874 10875 10876 10874 10873 10872 10871 10871 10870 10869 10866 10863 10860
10886 10885 10882 10881 10878 10876 10874 10873 10872 10871 10870 10868 10866 10863 10862 10862 10862 10862 10861 10862 10863 10863 10864 10864 10864 10864 10863 10862 10862 10862 10863 10864 10863 10860 10859 10857 10856 10855 10853 10851 10850 10847 10843
10883 10882 10880 10878 10875 10874 10872 10871 10870 10868 10867 10865 10862 10861 10860 10859 10858 10858 10858 10858 10858 10857 10856 10856 10855 10855 10854 10853 10852 10851 10850 10849 10848 10846 10845 10843 10841 10839 10837 10834 10831 10826 10822
10880 10878 10877 10876 10874 10872 10870 10869 10868 10866 10865 10863 10861 10859 10858 10857 10856 10855 10854 10853 10852 10851 10850 10849 10848 10846 10844 10843 10841 10839 10837 10836 10834 10831 10830 10827 10824 10821 10818 10814 10813 10809 10805
10876 10874 10874 10874 10874 10872 10869 10867 10866 10865 10864 10863 10861 10859 10856 10855 10854 10852 10850 10848 10846 10844 10843 10842 10840 10838 10835 10833 10830 10828 10825 10823 10821 10818 10815 10811 10808 10804 10798 10795 10791 10788 10784
10873 10871 10871 10871 10871 10870 10867 10865 10864 10863 10862 10860 10858 10856 10854 10852 10849 10847 10845 10843 10841 10839 10837 10835 10833 10831 10827 10824 10820 10815 10812 10809 10807 10803 10800 10795 10791 10786 10782 10778 10773 10769 10764
10868 10867 10866 10867 10867 10866 10864 10862 10860 10858 10856 10855 10854 10852 10849 10846 10844 10842 10839 10837 10834 10831 10828 10825 10823 10819 10815 10811 10807 10803 10799 10795 10791 10788 10783 10776 10772 10768 10763 10756 10751 10745 10740
10863 10862 10861 10861 10861 10861 10859 10857 10855 10852 10850 10848 10846 10845 10842 10839 10836 10833 10830 10826 10823 10820 10816 10812 10808 10805 10801 10796 10791 10786 10781 10776 10772 10770 10764 10758 10753 10747 10740 10732 10726 10719 10713
10857 10856 10855 10855 10854 10854 10852 10850 10848 10846 10842 10840 10837 10835 10833 10829 10825 10822 10818 10814 10810 10805 10800 10796 10792 10788 10784 10777 10771 10766 10761 10755 10750 10747 10740 10735 10729 10720 10713 10705 10698 10689 10679
10849 10848 10847 10846 10845 10843 10842 10840 10838 10837 10831 10829 10827 10824 10820 10817 10813 10808 10804 10800 10794 10789 10784 10779 10776 10771 10765 10756 10750 10743 10737 10731 10725 10721 10714 10709 10703 10693 10684 10675 10666 10656 10647